When you browse on this site, cookies collect data to enhance your experience and personalize the content and advertising you see.
Visit our Privacy Policy to learn more. By continuing to use the site, you agree to this use of cookies and data.
  • In Portugal
  • List of Countries
  • For 7 days
  • Water Temperature
  • Weather Map
  • Weather Widgets
  • user-avatar
    Login

    Hourly Weather Dvoreckaya Sloboda

    Today, 19 September, Thursday

    Time Temperature Precipitation Wind Pressure Humidity
    00:00 +5°C° 0 mm 4 mps 744 mmHg 92%
    01:00 +5°C° 0 mm 4 mps 745 mmHg 94%
    02:00 +5°C° 0 mm 4 mps 745 mmHg 96%
    03:00 +5°C° 0 mm 4 mps 745 mmHg 96%
    04:00 +5°C° 0 mm 4 mps 746 mmHg 96%
    05:00 +5°C° 0 mm 4 mps 746 mmHg 95%
    06:00 +6°C° 0 mm 4 mps 746 mmHg 93%
    07:00 +6°C° 0 mm 4 mps 747 mmHg 91%
    08:00 +7°C° 0 mm 4 mps 747 mmHg 88%
    09:00 +7°C° 0.1 mm 4 mps 747 mmHg 86%
    10:00 +8°C° 0.1 mm 4 mps 748 mmHg 83%
    11:00 +8°C° 0.1 mm 4 mps 748 mmHg 81%
    12:00 +10°C° 0.3 mm 4 mps 748 mmHg 79%
    13:00 +11°C° 0.3 mm 4 mps 749 mmHg 77%
    14:00 +11°C° 0.3 mm 4 mps 749 mmHg 75%
    15:00 +11°C° 0.2 mm 4 mps 749 mmHg 76%
    16:00 +11°C° 0.2 mm 3 mps 749 mmHg 77%
    17:00 +10°C° 0.2 mm 3 mps 749 mmHg 78%
    18:00 +9°C° 0 mm 3 mps 749 mmHg 82%
    19:00 +8°C° 0 mm 2 mps 749 mmHg 86%
    20:00 +6°C° 0 mm 2 mps 749 mmHg 90%
    21:00 +6°C° 0 mm 2 mps 749 mmHg 91%
    22:00 +6°C° 0 mm 2 mps 749 mmHg 91%
    23:00 +5°C° 0 mm 2 mps 749 mmHg 91%

    Tomorrow, 20 September, Friday

    Time Temperature Precipitation Wind Pressure Humidity
    00:00 +5°C° 0 mm 2 mps 749 mmHg 92%
    01:00 +5°C° 0 mm 2 mps 749 mmHg 93%
    02:00 +4°C° 0 mm 3 mps 749 mmHg 94%
    03:00 +4°C° 0 mm 3 mps 749 mmHg 95%
    04:00 +4°C° 0 mm 3 mps 749 mmHg 96%
    05:00 +3°C° 0 mm 3 mps 749 mmHg 97%
    06:00 +4°C° 0 mm 3 mps 749 mmHg 94%
    07:00 +5°C° 0 mm 4 mps 749 mmHg 92%
    08:00 +6°C° 0 mm 5 mps 749 mmHg 89%
    09:00 +6°C° 0.2 mm 5 mps 749 mmHg 87%
    10:00 +7°C° 0.2 mm 5 mps 749 mmHg 85%
    11:00 +7°C° 0.2 mm 5 mps 750 mmHg 82%
    12:00 +8°C° 0.5 mm 5 mps 750 mmHg 79%
    13:00 +8°C° 0.5 mm 5 mps 750 mmHg 75%
    14:00 +9°C° 0.5 mm 6 mps 750 mmHg 71%
    15:00 +8°C° 0.2 mm 5 mps 750 mmHg 73%
    16:00 +7°C° 0.2 mm 5 mps 750 mmHg 75%
    17:00 +7°C° 0.2 mm 5 mps 750 mmHg 77%
    18:00 +5°C° 0 mm 4 mps 751 mmHg 79%
    19:00 +4°C° 0 mm 4 mps 751 mmHg 82%
    20:00 +3°C° 0 mm 3 mps 752 mmHg 84%
    21:00 +3°C° 0 mm 3 mps 752 mmHg 85%
    22:00 +2°C° 0 mm 3 mps 752 mmHg 85%
    23:00 +2°C° 0 mm 3 mps 752 mmHg 85%

    Day after tomorrow, 21 September, Saturday

    Time Temperature Precipitation Wind Pressure Humidity
    00:00 +2°C° 0 mm 3 mps 752 mmHg 86%
    01:00 +1°C° 0 mm 3 mps 752 mmHg 86%
    02:00 +1°C° 0 mm 3 mps 753 mmHg 86%
    03:00 +2°C° 0 mm 2 mps 753 mmHg 86%
    04:00 +2°C° 0 mm 2 mps 752 mmHg 85%
    05:00 +2°C° 0 mm 2 mps 752 mmHg 84%
    06:00 +3°C° 0 mm 3 mps 752 mmHg 82%
    07:00 +4°C° 0 mm 3 mps 752 mmHg 80%
    08:00 +5°C° 0 mm 3 mps 752 mmHg 77%
    09:00 +5°C° 0.1 mm 4 mps 751 mmHg 79%
    10:00 +5°C° 0.1 mm 4 mps 751 mmHg 81%
    11:00 +6°C° 0.1 mm 5 mps 750 mmHg 83%
    12:00 +6°C° 0.4 mm 4 mps 750 mmHg 87%
    13:00 +6°C° 0.4 mm 4 mps 750 mmHg 91%
    14:00 +6°C° 0.4 mm 4 mps 749 mmHg 94%
    15:00 +7°C° 0.5 mm 4 mps 749 mmHg 95%
    16:00 +8°C° 0.5 mm 4 mps 748 mmHg 96%
    17:00 +10°C° 0.5 mm 4 mps 748 mmHg 96%
    18:00 +10°C° 0.1 mm 5 mps 748 mmHg 95%
    19:00 +10°C° 0.1 mm 5 mps 748 mmHg 95%
    20:00 +10°C° 0.1 mm 5 mps 748 mmHg 94%
    21:00 +10°C° 0.1 mm 5 mps 748 mmHg 94%
    22:00 +10°C° 0.1 mm 6 mps 748 mmHg 93%
    23:00 +11°C° 0.1 mm 6 mps 747 mmHg 93%

    22 September, Sunday

    Time Temperature Precipitation Wind Pressure Humidity
    00:00 +10°C° 0 mm 6 mps 747 mmHg 93%
    01:00 +10°C° 0 mm 6 mps 747 mmHg 93%
    02:00 +10°C° 0 mm 6 mps 747 mmHg 92%
    03:00 +10°C° 0 mm 7 mps 746 mmHg 92%
    04:00 +9°C° 0 mm 7 mps 746 mmHg 92%
    05:00 +9°C° 0 mm 7 mps 746 mmHg 91%
    06:00 +10°C° 0 mm 7 mps 746 mmHg 89%
    07:00 +10°C° 0 mm 8 mps 746 mmHg 87%
    08:00 +10°C° 0 mm 8 mps 746 mmHg 85%
    09:00 +10°C° 0.1 mm 7 mps 747 mmHg 78%
    10:00 +10°C° 0.1 mm 7 mps 748 mmHg 70%
    11:00 +9°C° 0.1 mm 7 mps 749 mmHg 62%
    12:00 +10°C° 0 mm 6 mps 749 mmHg 56%
    13:00 +11°C° 0 mm 6 mps 749 mmHg 51%
    14:00 +12°C° 0 mm 5 mps 750 mmHg 45%
    15:00 +11°C° 0 mm 4 mps 750 mmHg 49%
    16:00 +11°C° 0 mm 3 mps 750 mmHg 53%
    17:00 +10°C° 0 mm 3 mps 751 mmHg 57%
    18:00 +9°C° 0 mm 2 mps 751 mmHg 61%
    19:00 +7°C° 0 mm 2 mps 752 mmHg 64%
    20:00 +6°C° 0 mm 2 mps 752 mmHg 68%
    21:00 +6°C° 0 mm 1 mps 752 mmHg 69%
    22:00 +6°C° 0 mm 1 mps 752 mmHg 70%
    23:00 +5°C° 0 mm 1 mps 752 mmHg 70%

    23 September, Monday

    Time Temperature Precipitation Wind Pressure Humidity
    00:00 +5°C° 0 mm 1 mps 753 mmHg 71%
    01:00 +4°C° 0 mm 1 mps 753 mmHg 71%
    02:00 +3°C° 0 mm 0 mps 753 mmHg 71%
    03:00 +4°C° 0 mm 1 mps 753 mmHg 71%
    04:00 +4°C° 0 mm 1 mps 753 mmHg 72%
    05:00 +4°C° 0 mm 1 mps 753 mmHg 72%
    06:00 +4°C° 0 mm 2 mps 753 mmHg 69%
    07:00 +5°C° 0 mm 2 mps 752 mmHg 66%
    08:00 +5°C° 0 mm 3 mps 752 mmHg 63%
    09:00 +8°C° 0 mm 3 mps 752 mmHg 59%
    10:00 +10°C° 0 mm 4 mps 752 mmHg 54%
    11:00 +11°C° 0 mm 4 mps 751 mmHg 50%
    12:00 +12°C° 0 mm 5 mps 750 mmHg 50%
    13:00 +13°C° 0 mm 5 mps 749 mmHg 50%
    14:00 +14°C° 0 mm 5 mps 748 mmHg 49%
    15:00 +13°C° 0 mm 5 mps 748 mmHg 54%
    16:00 +13°C° 0 mm 4 mps 747 mmHg 58%
    17:00 +12°C° 0 mm 4 mps 746 mmHg 63%
    18:00 +12°C° 0 mm 4 mps 746 mmHg 63%
    19:00 +12°C° 0 mm 4 mps 745 mmHg 63%
    20:00 +11°C° 0 mm 4 mps 745 mmHg 63%
    21:00 +11°C° 0 mm 4 mps 744 mmHg 65%
    22:00 +11°C° 0 mm 4 mps 744 mmHg 67%
    23:00 +12°C° 0 mm 4 mps 743 mmHg 69%

    24 September, Tuesday

    Time Temperature Precipitation Wind Pressure Humidity
    00:00 +11°C° 0 mm 3 mps 743 mmHg 72%
    01:00 +11°C° 0 mm 3 mps 742 mmHg 76%
    02:00 +12°C° 0 mm 2 mps 742 mmHg 79%
    03:00 +12°C° 0 mm 2 mps 741 mmHg 79%
    04:00 +12°C° 0 mm 2 mps 741 mmHg 79%
    05:00 +12°C° 0 mm 2 mps 741 mmHg 79%
    06:00 +12°C° 0 mm 2 mps 741 mmHg 80%
    07:00 +12°C° 0 mm 2 mps 740 mmHg 80%
    08:00 +12°C° 0 mm 1 mps 740 mmHg 81%
    09:00 +13°C° 0 mm 2 mps 740 mmHg 80%
    10:00 +14°C° 0 mm 2 mps 741 mmHg 78%
    11:00 +14°C° 0 mm 2 mps 741 mmHg 76%
    12:00 +14°C° 0 mm 2 mps 741 mmHg 77%
    13:00 +14°C° 0 mm 2 mps 740 mmHg 77%
    14:00 +14°C° 0 mm 2 mps 740 mmHg 77%
    15:00 +14°C° 0 mm 2 mps 740 mmHg 79%
    16:00 +14°C° 0 mm 2 mps 740 mmHg 80%
    17:00 +14°C° 0 mm 2 mps 740 mmHg 81%
    18:00 +13°C° 0 mm 2 mps 740 mmHg 84%
    19:00 +12°C° 0 mm 2 mps 740 mmHg 88%
    20:00 +12°C° 0 mm 2 mps 741 mmHg 92%
    21:00 +10°C° 0 mm 2 mps 741 mmHg 93%
    22:00 +10°C° 0 mm 2 mps 741 mmHg 94%
    23:00 +10°C° 0 mm 2 mps 741 mmHg 95%
    Show more